Weather History for Highgate, VT

Change the Weather History Date:

Thursday, April 3, 2014

  Actual Average (KPBG) Record (KPBG)
Temperature  
Mean Temperature 36 °F 37 °F  
Max Temperature 41 °F 47 °F 78 °F (1981)
Min Temperature 30 °F 27 °F 9 °F (1954)
Degree Days  
Heating Degree Days 30 28  
Month to date heating degree days 86  
Since 1 July heating degree days 6769  
Cooling Degree Days 0 0  
Month to date cooling degree days 0  
Year to date cooling degree days 0  
Moisture  
Dew Point 23 °F    
Average Humidity 58    
Maximum Humidity 75    
Minimum Humidity 43    
Precipitation  
Precipitation 0.00 in - 1.14 in (1990)
Month to date precipitation  
Year to date precipitation  
Sea Level Pressure  
Sea Level Pressure 30.16 in    
Wind  
Wind Speed 5 mph (NW)    
Max Wind Speed 10 mph    
Max Gust Speed 17 mph    
Visibility 10 miles    
Events      
T = Trace of Precipitation, MM = Missing Value Source: NWS Daily Summary

Daily Weather History Graph

Daily Weather History Graph

Search for Another Location

Airport:

Trip Planner

Search our weather history database for the weather conditions in past years. The results will help you decide how hot, cold, wet, or windy it might be!

Date:

Astronomy

Apr. 03, 2014 Rise Set
Actual Time 6:29 AM EDT 7:22 PM EDT
Civil Twilight 5:59 AM EDT 7:52 PM EDT
Nautical Twilight 5:24 AM EDT 8:28 PM EDT
Astronomical Twilight 4:47 AM EDT 9:05 PM EDT
Moon 8:47 AM EDT (4/3) 11:48 PM EDT (4/3)
Length of Visible Light 13h 52m
Length of Day
12h 53m
Waxing Crescent, 17% of the Moon is Illuminated
Apr 3
Waxing Crescent
Apr 7
First Quarter
Apr 15
Full
Apr 22
Last Quarter
Apr 29
New

Hourly Weather History & Observations

Time (EDT) Temp. Windchill Dew Point Humidity Pressure Visibility Wind Dir Wind Speed Gust Speed Precip Events Conditions
12:15 AM 38.3 °F 35.9 °F 28.2 °F 67% 30.08 in 10.0 mi West 3.5 mph - N/A   Clear
12:35 AM 38.3 °F 35.9 °F 26.6 °F 63% 30.08 in 10.0 mi West 3.5 mph - N/A   Clear
12:55 AM 37.9 °F 34.4 °F 27.1 °F 65% 30.09 in 10.0 mi West 4.6 mph - N/A   Clear
1:15 AM 38.3 °F 34.8 °F 26.6 °F 63% 30.10 in 10.0 mi WSW 4.6 mph - N/A   Clear
1:35 AM 37.0 °F 32.4 °F 26.2 °F 65% 30.10 in 10.0 mi West 5.8 mph - N/A   Clear
1:55 AM 37.2 °F 31.9 °F 26.4 °F 65% 30.11 in 10.0 mi West 6.9 mph - N/A   Clear
2:15 AM 37.0 °F 31.6 °F 26.1 °F 65% 30.11 in 10.0 mi West 6.9 mph - N/A   Clear
2:35 AM 35.6 °F 29.9 °F 25.2 °F 66% 30.11 in 10.0 mi West 6.9 mph - N/A   Clear
2:55 AM 35.6 °F 29.2 °F 25.3 °F 66% 30.11 in 10.0 mi West 8.1 mph - N/A   Clear
3:15 AM 35.6 °F 29.2 °F 24.8 °F 65% 30.12 in 10.0 mi West 8.1 mph - N/A   Clear
3:35 AM 35.6 °F 30.7 °F 25.0 °F 65% 30.12 in 10.0 mi West 5.8 mph - N/A   Scattered Clouds
3:55 AM 35.6 °F 32.8 °F 24.8 °F 65% 30.12 in 10.0 mi West 3.5 mph - N/A   Overcast
4:15 AM 35.6 °F 32.8 °F 24.8 °F 65% 30.13 in 10.0 mi West 3.5 mph - N/A   Overcast
4:35 AM 35.6 °F 31.7 °F 24.8 °F 65% 30.13 in 10.0 mi West 4.6 mph - N/A   Overcast
4:55 AM 35.6 °F 32.8 °F 25.2 °F 66% 30.14 in 10.0 mi West 3.5 mph - N/A   Overcast
5:15 AM 35.6 °F 31.7 °F 25.3 °F 66% 30.14 in 10.0 mi West 4.6 mph - N/A   Mostly Cloudy
5:35 AM 33.6 °F 30.6 °F 23.9 °F 68% 30.14 in 10.0 mi West 3.5 mph - N/A   Scattered Clouds
5:55 AM 33.1 °F - 23.9 °F 69% 30.14 in 10.0 mi Calm Calm - N/A   Clear
6:15 AM 32.0 °F - 23.0 °F 69% 30.14 in 10.0 mi Calm Calm - N/A   Clear
6:35 AM 32.0 °F 28.7 °F 23.0 °F 69% 30.15 in 10.0 mi West 3.5 mph - N/A   Mostly Cloudy
6:55 AM 33.1 °F 28.7 °F 23.9 °F 69% 30.15 in 10.0 mi West 4.6 mph - N/A   Overcast
7:15 AM 33.1 °F 28.7 °F 23.5 °F 68% 30.15 in 10.0 mi West 4.6 mph - N/A   Overcast
7:35 AM 33.1 °F 28.7 °F 23.4 °F 67% 30.16 in 10.0 mi West 4.6 mph - N/A   Overcast
7:55 AM 33.3 °F 27.9 °F 23.0 °F 66% 30.17 in 10.0 mi West 5.8 mph - N/A   Overcast
8:15 AM 35.6 °F 30.7 °F 25.0 °F 65% 30.18 in 10.0 mi West 5.8 mph - N/A   Scattered Clouds
8:35 AM 35.6 °F 30.7 °F 23.9 °F 62% 30.18 in 10.0 mi WNW 5.8 mph - N/A   Clear
8:55 AM 35.6 °F 29.9 °F 23.2 °F 61% 30.18 in 10.0 mi WNW 6.9 mph - N/A   Clear
9:15 AM 37.2 °F 33.6 °F 23.7 °F 58% 30.18 in 10.0 mi WNW 4.6 mph - N/A   Clear
9:35 AM 38.3 °F 33.2 °F 23.5 °F 55% 30.18 in 10.0 mi NNW 6.9 mph - N/A   Scattered Clouds
9:55 AM 38.3 °F 34.8 °F 22.8 °F 54% 30.19 in 10.0 mi NW 4.6 mph - N/A   Mostly Cloudy
10:15 AM 38.3 °F 33.2 °F 22.5 °F 53% 30.19 in 10.0 mi NNW 6.9 mph - N/A   Overcast
10:35 AM 38.3 °F 33.2 °F 22.6 °F 53% 30.19 in 10.0 mi NNW 6.9 mph - N/A   Overcast
10:55 AM 38.3 °F 33.2 °F 21.7 °F 51% 30.19 in 10.0 mi NNW 6.9 mph - N/A   Overcast
11:15 AM 38.3 °F 33.2 °F 22.5 °F 53% 30.20 in 10.0 mi NW 6.9 mph - N/A   Overcast
11:35 AM 36.9 °F 31.4 °F 21.9 °F 55% 30.20 in 10.0 mi North 6.9 mph - N/A   Overcast
11:55 AM 38.3 °F 33.9 °F 20.8 °F 50% 30.20 in 10.0 mi NNW 5.8 mph - N/A   Overcast
12:15 PM 38.3 °F 35.9 °F 21.7 °F 51% 30.20 in 10.0 mi North 3.5 mph - N/A   Overcast
12:35 PM 37.8 °F 35.3 °F 21.9 °F 53% 30.19 in 10.0 mi North 3.5 mph - N/A   Overcast
12:55 PM 38.3 °F 33.9 °F 21.0 °F 50% 30.19 in 10.0 mi North 5.8 mph - N/A   Overcast
1:15 PM 38.3 °F 34.8 °F 20.1 °F 48% 30.19 in 10.0 mi NNW 4.6 mph - N/A   Overcast
1:35 PM 38.5 °F 32.7 °F 19.9 °F 47% 30.18 in 10.0 mi North 8.1 mph - N/A   Overcast
1:55 PM 41.0 °F 37.1 °F 20.1 °F 43% 30.19 in 10.0 mi NW 5.8 mph - N/A   Overcast
2:15 PM 41.0 °F 39.0 °F 20.7 °F 44% 30.19 in 10.0 mi North 3.5 mph - N/A   Mostly Cloudy
2:35 PM 41.0 °F 37.1 °F 20.8 °F 45% 30.19 in 10.0 mi West 5.8 mph - N/A   Scattered Clouds
2:55 PM 41.0 °F 38.0 °F 20.1 °F 43% 30.19 in 10.0 mi NW 4.6 mph - N/A   Clear
3:15 PM 41.0 °F 36.4 °F 20.5 °F 44% 30.19 in 10.0 mi NW 6.9 mph - N/A   Clear
3:35 PM 41.0 °F 34.7 °F 21.0 °F 45% 30.19 in 10.0 mi NW 10.4 mph 17.3 mph N/A   Clear
3:55 PM 41.0 °F 35.8 °F 21.6 °F 46% 30.19 in 10.0 mi NNW 8.1 mph - N/A   Clear
4:15 PM 41.0 °F 37.1 °F 21.2 °F 45% 30.19 in 10.0 mi NNW 5.8 mph - N/A   Clear
4:35 PM 41.0 °F 34.7 °F 21.4 °F 46% 30.19 in 10.0 mi North 10.4 mph - N/A   Clear
4:55 PM 41.0 °F 34.7 °F 21.6 °F 46% 30.18 in 10.0 mi North 10.4 mph - N/A   Clear
5:15 PM 39.0 °F 33.4 °F 21.0 °F 49% 30.18 in 10.0 mi North 8.1 mph - N/A   Clear
5:35 PM 38.5 °F 33.4 °F 20.3 °F 48% 30.18 in 10.0 mi North 6.9 mph - N/A   Clear
5:55 PM 38.3 °F 33.2 °F 19.4 °F 47% 30.17 in 10.0 mi North 6.9 mph - N/A   Clear
6:15 PM 38.3 °F 33.9 °F 20.5 °F 49% 30.17 in 10.0 mi North 5.8 mph - N/A   Clear
6:35 PM 38.3 °F 34.8 °F 21.4 °F 51% 30.17 in 10.0 mi North 4.6 mph - N/A   Clear
6:55 PM 36.9 °F 34.3 °F 20.7 °F 52% 30.17 in 10.0 mi North 3.5 mph - N/A   Clear
7:15 PM 35.6 °F - 20.7 °F 55% 30.17 in 10.0 mi Calm Calm - N/A   Clear
7:35 PM 35.6 °F 32.8 °F 21.0 °F 55% 30.17 in 10.0 mi NNE 3.5 mph - N/A   Clear
7:55 PM 35.6 °F 31.7 °F 22.6 °F 59% 30.17 in 10.0 mi North 4.6 mph - N/A   Clear
8:15 PM 35.6 °F - 22.3 °F 58% 30.17 in 10.0 mi Calm Calm - N/A   Clear
8:35 PM 33.1 °F - 20.8 °F 61% 30.16 in 10.0 mi Calm Calm - N/A   Clear
8:55 PM 32.0 °F - 21.0 °F 64% 30.17 in 10.0 mi Calm Calm - N/A   Clear
9:15 PM 30.9 °F - 21.4 °F 68% 30.17 in 10.0 mi Calm Calm - N/A   Clear
9:55 PM 30.9 °F - 22.5 °F 71% 30.19 in 10.0 mi Calm Calm - N/A   Clear
10:35 PM 30.9 °F - 23.9 °F 75% 30.21 in 10.0 mi Calm Calm - N/A   Clear